N5CSU Weather Reports


time (UTC)temp
C
wind
direction
speed
KPH
gust
KPH
rain 1hr
cm
rain 24hr
cm
rain mn
cm
humidity
%
barometer
mb
20220629042608 27 342 0.0 0.0 0.00 0.00 0.00 20 1022.1
20220629042107 27 199 0.0 0.0 0.00 0.00 0.00 19 1022.4
20220629041606 27 352 0.0 0.0 0.00 0.00 0.00 19 1022.1
20220629041106 27 355 0.0 0.0 0.00 0.00 0.00 18 1022.1
20220629040606 27 336 0.0 0.0 0.00 0.00 0.00 18 1022.4
20220629040105 27 0 0.0 0.0 0.00 0.00 0.00 18 1022.1
20220629035604 27 314 0.0 0.0 0.00 0.00 0.00 18 1022.1
20220629035103 27 348 0.0 0.0 0.00 0.00 0.00 18 1022.1
20220629034601 27 34 0.0 0.0 0.00 0.00 0.00 18 1022.1
20220629034100 28 5 0.0 0.0 0.00 0.00 0.00 18 1022.1
20220629033559 28 34 0.0 0.0 0.00 0.00 0.00 18 1022.1
20220629033058 28 15 0.0 0.0 0.00 0.00 0.00 13 1022.1
20220629032557 27 239 0.0 0.0 0.00 0.00 0.00 13 1022.1
20220629032056 27 39 0.0 0.0 0.00 0.00 0.00 12 1022.1
20220629031555 27 339 0.0 0.0 0.00 0.00 0.00 12 1021.7
20220629031054 27 4 0.0 0.0 0.00 0.00 0.00 12 1022.1
20220629030553 27 35 0.0 0.0 0.00 0.00 0.00 12 1021.7
20220629030052 27 0 0.0 0.0 0.00 0.00 0.00 17 1021.4
20220629025550 28 0 0.0 0.0 0.00 0.00 0.00 16 1021.4
20220629025049 28 0 0.0 0.0 0.00 0.00 0.00 15 1021.4
20220629024547 28 0 0.0 0.0 0.00 0.00 0.00 14 1021.4
20220629024047 28 0 0.0 0.0 0.00 0.00 0.00 14 1021.0
20220629023546 28 0 0.0 0.0 0.00 0.00 0.00 12 1021.0
20220629023044 28 0 0.0 0.0 0.00 0.00 0.00 12 1021.0
20220629022544 28 0 0.0 0.0 0.00 0.00 0.00 12 1021.0
20220629022042 28 0 0.0 0.0 0.00 0.00 0.00 12 1021.0
20220629021540 28 0 0.0 0.0 0.00 0.00 0.00 12 1021.0
20220629021039 28 1 0.0 0.0 0.00 0.00 0.00 12 1021.0
20220629020539 28 352 0.0 0.0 0.00 0.00 0.00 12 1021.0
20220629020040 28 355 0.0 0.0 0.00 0.00 0.00 12 1021.0
20220629015538 29 354 0.0 0.0 0.00 0.00 0.00 12 1020.7
20220629015037 29 355 0.0 0.0 0.00 0.00 0.00 12 1021.0
20220629014537 29 355 0.0 0.0 0.00 0.00 0.00 12 1020.7
20220629014036 30 355 0.0 0.0 0.00 0.00 0.00 12 1020.7
20220629013535 30 355 0.0 0.0 0.00 0.00 0.00 11 1020.7
20220629013034 30 355 0.0 0.0 0.00 0.00 0.00 11 1020.7
20220629012533 30 355 0.0 0.0 0.00 0.00 0.00 11 1020.7
20220629012032 30 355 0.0 0.0 0.00 0.00 0.00 11 1020.7
20220629011530 30 358 0.0 0.0 0.00 0.00 0.00 11 1020.7
20220629011029 30 358 0.0 0.0 0.00 0.00 0.00 11 1020.7
20220629010527 30 357 0.0 0.0 0.00 0.00 0.00 11 1020.7
20220629010027 30 358 0.0 0.0 0.00 0.00 0.00 10 1020.4
20220629005526 30 358 0.0 0.0 0.00 0.00 0.00 10 1020.4
20220629005026 30 359 0.0 0.0 0.00 0.00 0.00 10 1020.4
20220629004525 30 300 0.0 0.0 0.00 0.00 0.00 10 1020.4
20220629004024 30 255 0.0 0.0 0.00 0.00 0.00 10 1020.4
20220629003523 31 150 0.0 0.0 0.00 0.00 0.00 10 1020.0
20220629003023 31 3 0.0 0.0 0.00 0.00 0.00 10 1020.4
20220629002522 31 249 0.0 0.0 0.00 0.00 0.00 10 1020.4
20220629002023 31 330 0.0 0.0 0.00 0.00 0.00 10 1020.0
20220629001521 31 329 0.0 0.0 0.00 0.00 0.00 10 1020.0
20220629001021 31 164 0.0 0.0 0.00 0.00 0.00 10 1020.4
20220629000520 31 157 0.0 0.0 0.00 0.00 0.00 10 1020.0
20220629000019 31 332 0.0 0.0 0.00 0.00 0.00 10 1020.4
20220628235520 31 51 0.0 0.0 0.00 0.00 0.00 10 1020.0
20220628235019 31 4 0.0 0.0 0.00 0.00 0.00 10 1020.0
20220628234518 31 11 0.0 0.0 0.00 0.00 0.00 10 1020.4
20220628234017 31 109 0.0 0.0 0.00 0.00 0.00 10 1019.7
20220628233515 31 336 0.0 0.0 0.00 0.00 0.00 10 1020.0
20220628233015 31 215 0.0 0.0 0.00 0.00 0.00 10 1020.0
20220628232513 31 217 0.0 0.0 0.00 0.00 0.00 10 1020.0
20220628232011 31 212 0.0 4.8 0.00 0.00 0.00 10 1020.0
20220628231509 31 38 0.0 0.0 0.00 0.00 0.00 10 1020.0
20220628231009 31 16 0.0 0.0 0.00 0.00 0.00 10 1020.4
20220628230507 31 22 0.0 0.0 0.00 0.00 0.00 10 1020.4
20220628230007 31 260 0.0 0.0 0.00 0.00 0.00 10 1020.4
20220628225506 31 2 0.0 0.0 0.00 0.00 0.00 10 1020.4
20220628225006 31 292 0.0 0.0 0.00 0.00 0.00 10 1020.7
20220628224504 31 193 0.0 0.0 0.00 0.00 0.00 10 1020.4
20220628224004 31 170 0.0 0.0 0.00 0.00 0.00 10 1020.4
20220628223504 31 93 0.0 0.0 0.00 0.00 0.00 10 1020.7
20220628223003 31 236 0.0 0.0 0.00 0.00 0.00 10 1020.7
20220628222503 31 179 0.0 0.0 0.00 0.00 0.00 10 1020.7
20220628222004 31 114 0.0 0.0 0.00 0.00 0.00 10 1021.0
20220628221502 31 40 0.0 0.0 0.00 0.00 0.00 10 1021.0
20220628221001 31 224 0.0 0.0 0.00 0.00 0.00 10 1021.4
20220628220500 31 267 0.0 0.0 0.00 0.00 0.00 10 1021.4
20220628220000 31 200 0.0 0.0 0.00 0.00 0.00 10 1021.4
20220628215459 31 48 0.0 0.0 0.00 0.00 0.00 10 1021.0
20220628214958 31 0 0.0 0.0 0.00 0.00 0.00 10 1021.0
20220628214457 31 143 0.0 0.0 0.00 0.00 0.00 10 1021.7
20220628213956 31 248 0.0 0.0 0.00 0.00 0.00 10 1021.7
20220628213454 31 214 0.0 0.0 0.00 0.00 0.00 10 1021.7
20220628212953 31 315 0.0 0.0 0.00 0.00 0.00 10 1021.7
20220628212453 31 6 0.0 0.0 0.00 0.00 0.00 10 1021.7
20220628211952 31 185 0.0 0.0 0.00 0.00 0.00 10 1022.1
20220628211451 31 30 0.0 0.0 0.00 0.00 0.00 10 1022.1
20220628210950 31 194 0.0 0.0 0.00 0.00 0.00 10 1022.1
20220628210450 31 27 0.0 0.0 0.00 0.00 0.00 10 1022.1
20220628205950 31 44 0.0 0.0 0.00 0.00 0.00 10 1022.4
20220628205449 32 40 0.0 0.0 0.00 0.00 0.00 10 1022.1
20220628204948 32 132 0.0 0.0 0.00 0.00 0.00 10 1022.4
20220628204447 32 130 0.0 0.0 0.00 0.00 0.00 10 1022.4
20220628203946 31 209 0.0 0.0 0.00 0.00 0.00 10 1022.7
20220628203446 31 86 0.0 0.0 0.00 0.00 0.00 10 1022.4
20220628202945 31 339 0.0 0.0 0.00 0.00 0.00 10 1022.7
20220628202445 31 57 0.0 4.8 0.00 0.00 0.00 10 1022.7
20220628201944 31 27 0.0 0.0 0.00 0.00 0.00 10 1022.7
20220628201442 31 337 0.0 0.0 0.00 0.00 0.00 10 1022.7
20220628200941 31 330 0.0 0.0 0.00 0.00 0.00 10 1023.1
20220628200440 31 140 0.0 0.0 0.00 0.00 0.00 10 1022.7
20220628195939 31 32 0.0 0.0 0.00 0.00 0.00 10 1022.7
20220628195439 31 172 0.0 0.0 0.00 0.00 0.00 10 1022.7
20220628194938 31 339 0.0 0.0 0.00 0.00 0.00 10 1022.7
20220628194437 31 272 0.0 0.0 0.00 0.00 0.00 10 1023.1
20220628193936 31 50 0.0 0.0 0.00 0.00 0.00 10 1023.1
20220628193435 31 319 0.0 0.0 0.00 0.00 0.00 10 1023.1
20220628192934 31 133 0.0 0.0 0.00 0.00 0.00 10 1023.1
20220628192434 31 326 0.0 0.0 0.00 0.00 0.00 10 1023.1
20220628191933 31 40 0.0 0.0 0.00 0.00 0.00 10 1023.1
20220628191432 31 145 0.0 0.0 0.00 0.00 0.00 10 1023.1
20220628190931 31 326 0.0 0.0 0.00 0.00 0.00 10 1023.1
20220628190430 31 28 1.6 4.8 0.00 0.00 0.00 10 1023.4
20220628185929 31 15 0.0 4.8 0.00 0.00 0.00 10 1023.9
20220628185428 31 34 0.0 4.8 0.00 0.00 0.00 10 1023.4
20220628184927 31 117 0.0 0.0 0.00 0.00 0.00 10 1023.9
20220628184426 30 118 0.0 0.0 0.00 0.00 0.00 10 1023.9
20220628183925 30 140 0.0 4.8 0.00 0.00 0.00 10 1023.9
20220628183424 30 70 0.0 0.0 0.00 0.00 0.00 10 1023.9
20220628182924 30 250 0.0 0.0 0.00 0.00 0.00 10 1023.9
20220628182423 30 161 0.0 0.0 0.00 0.00 0.00 10 1024.5
20220628181921 30 341 0.0 0.0 0.00 0.00 0.00 10 1024.2
20220628181420 30 235 0.0 0.0 0.00 0.00 0.00 10 1024.5
20220628180919 30 304 0.0 0.0 0.00 0.00 0.00 10 1024.5
20220628180417 30 233 0.0 0.0 0.00 0.00 0.00 10 1024.2
20220628175916 30 91 0.0 0.0 0.00 0.00 0.00 10 1024.2
20220628175416 30 89 1.6 4.8 0.00 0.00 0.00 10 1024.2
20220628174915 30 57 0.0 4.8 0.00 0.00 0.00 10 1024.2
20220628174414 30 50 0.0 0.0 0.00 0.00 0.00 10 1024.5
20220628173913 30 3 1.6 4.8 0.00 0.00 0.00 10 1024.5
20220628173412 30 195 0.0 4.8 0.00 0.00 0.00 10 1024.5
20220628172912 30 197 0.0 0.0 0.00 0.00 0.00 10 1024.5
20220628172411 30 15 0.0 0.0 0.00 0.00 0.00 10 1024.5
20220628171910 30 210 0.0 0.0 0.00 0.00 0.00 10 1024.5
20220628171408 30 151 0.0 0.0 0.00 0.00 0.00 10 1024.9
20220628170907 30 16 0.0 4.8 0.00 0.00 0.00 10 1024.5
20220628170406 30 236 0.0 0.0 0.00 0.00 0.00 11 1024.5
20220628165904 29 167 1.6 4.8 0.00 0.00 0.00 10 1024.5
20220628165403 29 181 0.0 0.0 0.00 0.00 0.00 11 1024.9
20220628164903 29 118 0.0 0.0 0.00 0.00 0.00 11 1024.5
20220628164402 29 13 0.0 0.0 0.00 0.00 0.00 11 1024.9
20220628163901 29 162 0.0 4.8 0.00 0.00 0.00 11 1024.5
20220628163400 28 175 0.0 0.0 0.00 0.00 0.00 11 1024.9
20220628162859 28 220 0.0 0.0 0.00 0.00 0.00 11 1024.9
20220628162358 28 200 0.0 0.0 0.00 0.00 0.00 11 1024.9
20220628161858 28 34 3.2 8.0 0.00 0.00 0.00 11 1024.9
20220628161356 28 150 0.0 0.0 0.00 0.00 0.00 11 1024.9
20220628160854 28 154 0.0 0.0 0.00 0.00 0.00 12 1024.9
20220628160354 27 66 1.6 4.8 0.00 0.00 0.00 12 1024.9
20220628155853 27 149 0.0 0.0 0.00 0.00 0.00 12 1024.9
20220628155353 27 252 0.0 0.0 0.00 0.00 0.00 12 1024.9
20220628154852 27 163 4.8 8.0 0.00 0.00 0.00 12 1024.5
20220628154351 27 96 0.0 0.0 0.00 0.00 0.00 12 1024.9
20220628153850 27 71 0.0 0.0 0.00 0.00 0.00 15 1024.5
20220628153349 26 64 3.2 4.8 0.00 0.00 0.00 14 1024.5
20220628152848 26 155 1.6 4.8 0.00 0.00 0.00 15 1024.9
20220628152347 26 249 0.0 0.0 0.00 0.00 0.00 17 1024.2
20220628151846 26 186 0.0 0.0 0.00 0.00 0.00 18 1024.2
20220628151345 26 327 0.0 0.0 0.00 0.00 0.00 17 1024.5
20220628150844 26 196 0.0 0.0 0.00 0.00 0.00 17 1024.2
20220628150344 26 249 0.0 0.0 0.00 0.00 0.00 19 1024.5
20220628145843 26 281 0.0 0.0 0.00 0.00 0.00 19 1024.9
20220628145343 26 45 0.0 0.0 0.00 0.00 0.00 19 1024.9
20220628144842 26 44 0.0 0.0 0.00 0.00 0.00 19 1024.2
20220628144341 26 16 0.0 0.0 0.00 0.00 0.00 19 1024.5
20220628143840 26 149 0.0 0.0 0.00 0.00 0.00 19 1024.2
20220628143340 25 0 0.0 0.0 0.00 0.00 0.00 19 1024.9
20220628142839 25 56 0.0 0.0 0.00 0.00 0.00 19 1024.2
20220628142338 25 211 0.0 0.0 0.00 0.00 0.00 21 1024.2
20220628141837 25 164 0.0 0.0 0.00 0.00 0.00 22 1024.5
20220628141337 25 86 0.0 0.0 0.00 0.00 0.00 21 1024.2
20220628140836 25 172 0.0 0.0 0.00 0.00 0.00 21 1024.5
20220628140336 25 175 0.0 0.0 0.00 0.00 0.00 22 1024.2
20220628135835 25 17 0.0 0.0 0.00 0.00 0.00 21 1024.5
20220628135334 25 182 0.0 0.0 0.00 0.00 0.00 24 1024.5
20220628134833 25 53 0.0 0.0 0.00 0.00 0.00 23 1024.2
20220628134332 25 357 0.0 0.0 0.00 0.00 0.00 26 1024.2
20220628133831 25 359 0.0 0.0 0.00 0.00 0.00 26 1024.2
20220628133329 25 333 0.0 0.0 0.00 0.00 0.00 26 1024.2
20220628132828 25 9 0.0 0.0 0.00 0.00 0.00 30 1024.2
20220628132326 24 271 0.0 0.0 0.00 0.00 0.00 28 1023.9
20220628131826 24 333 0.0 0.0 0.00 0.00 0.00 27 1023.9
20220628131322 23 157 0.0 0.0 0.00 0.00 0.00 31 1023.9
20220628130821 23 15 0.0 0.0 0.00 0.00 0.00 31 1023.9
20220628130320 23 205 0.0 0.0 0.00 0.00 0.00 32 1023.9
20220628125819 23 144 0.0 0.0 0.00 0.00 0.00 32 1023.9
20220628125318 23 246 0.0 0.0 0.00 0.00 0.00 34 1023.9
20220628124817 23 245 0.0 0.0 0.00 0.00 0.00 35 1023.9
20220628124317 23 329 0.0 0.0 0.00 0.00 0.00 37 1023.9
20220628123816 23 336 0.0 0.0 0.00 0.00 0.00 37 1023.9
20220628123315 23 329 0.0 0.0 0.00 0.00 0.00 38 1023.9
20220628122814 22 344 0.0 0.0 0.00 0.00 0.00 38 1023.9
20220628122313 22 181 0.0 0.0 0.00 0.00 0.00 39 1023.9
20220628121811 22 293 0.0 0.0 0.00 0.00 0.00 41 1023.9
20220628121310 22 341 0.0 0.0 0.00 0.00 0.00 42 1023.9
20220628120809 22 343 0.0 0.0 0.00 0.00 0.00 43 1023.9
20220628120309 22 343 0.0 0.0 0.00 0.00 0.00 41 1023.9
20220628115808 22 343 0.0 0.0 0.00 0.00 0.00 41 1023.4
20220628115308 22 332 0.0 0.0 0.00 0.00 0.00 41 1023.9
20220628114806 22 331 0.0 0.0 0.00 0.00 0.00 40 1023.4
20220628114306 22 343 0.0 0.0 0.00 0.00 0.00 39 1023.4
20220628113805 22 326 0.0 0.0 0.00 0.00 0.00 39 1023.1
20220628113304 22 337 0.0 0.0 0.00 0.00 0.00 39 1023.4
20220628112804 22 325 0.0 0.0 0.00 0.00 0.00 39 1023.4
20220628112302 22 330 0.0 0.0 0.00 0.00 0.00 39 1023.4
20220628111802 23 331 0.0 0.0 0.00 0.00 0.00 39 1023.4
20220628111301 23 337 0.0 0.0 0.00 0.00 0.00 40 1023.4
20220628110801 23 331 0.0 0.0 0.00 0.00 0.00 39 1023.1
20220628110259 23 336 0.0 0.0 0.00 0.00 0.00 39 1023.1
20220628105759 23 347 0.0 0.0 0.00 0.00 0.00 39 1023.1
20220628105258 23 325 0.0 0.0 0.00 0.00 0.00 38 1023.4
20220628104758 23 337 0.0 0.0 0.00 0.00 0.00 37 1023.4
20220628104259 23 335 0.0 0.0 0.00 0.00 0.00 37 1023.4
20220628103758 23 331 0.0 0.0 0.00 0.00 0.00 36 1023.4
20220628103257 23 342 0.0 0.0 0.00 0.00 0.00 36 1023.1
20220628102756 23 294 0.0 0.0 0.00 0.00 0.00 36 1023.4
20220628102255 23 294 0.0 0.0 0.00 0.00 0.00 36 1023.1
20220628101754 23 336 0.0 0.0 0.00 0.00 0.00 36 1023.4
20220628101253 24 335 0.0 0.0 0.00 0.00 0.00 36 1023.4
20220628100752 24 335 0.0 0.0 0.00 0.00 0.00 35 1023.1
20220628100253 24 326 0.0 0.0 0.00 0.00 0.00 35 1023.1
20220628095751 25 325 0.0 0.0 0.00 0.00 0.00 35 1023.1
20220628095249 25 332 0.0 0.0 0.00 0.00 0.00 34 1023.4
20220628094748 25 332 0.0 0.0 0.00 0.00 0.00 33 1023.4
20220628094247 25 293 0.0 0.0 0.00 0.00 0.00 33 1023.1
20220628093746 25 293 0.0 0.0 0.00 0.00 0.00 32 1023.1
20220628093245 25 350 0.0 0.0 0.00 0.00 0.00 31 1023.4
20220628092744 25 321 0.0 0.0 0.00 0.00 0.00 31 1023.4
20220628092243 25 297 0.0 0.0 0.00 0.00 0.00 31 1023.1
20220628091743 25 315 0.0 0.0 0.00 0.00 0.00 31 1023.1
20220628091243 25 217 0.0 0.0 0.00 0.00 0.00 31 1023.1
20220628090742 25 248 0.0 0.0 0.00 0.00 0.00 31 1023.1
20220628090240 25 357 0.0 0.0 0.00 0.00 0.00 31 1022.7
20220628085739 25 168 0.0 0.0 0.00 0.00 0.00 31 1022.7
20220628085238 25 18 0.0 0.0 0.00 0.00 0.00 30 1022.7
20220628084738 25 284 0.0 0.0 0.00 0.00 0.00 30 1022.7
20220628084237 25 284 0.0 0.0 0.00 0.00 0.00 30 1022.7
20220628083737 25 2 0.0 0.0 0.00 0.00 0.00 30 1022.7
20220628083236 25 72 0.0 0.0 0.00 0.00 0.00 30 1022.4
20220628082736 25 95 0.0 0.0 0.00 0.00 0.00 30 1022.4
20220628082235 25 349 0.0 0.0 0.00 0.00 0.00 30 1022.7
20220628081735 25 142 0.0 0.0 0.00 0.00 0.00 30 1022.7
20220628081234 26 133 0.0 0.0 0.00 0.00 0.00 31 1022.7
20220628080733 26 240 0.0 0.0 0.00 0.00 0.00 30 1022.4
20220628080233 26 336 0.0 0.0 0.00 0.00 0.00 31 1022.7
20220628075732 26 183 0.0 0.0 0.00 0.00 0.00 30 1022.4
20220628075231 26 228 0.0 0.0 0.00 0.00 0.00 30 1022.7
20220628074730 26 139 0.0 0.0 0.00 0.00 0.00 31 1023.1
20220628074229 26 168 0.0 0.0 0.00 0.00 0.00 30 1022.7
20220628073728 26 237 0.0 0.0 0.00 0.00 0.00 30 1022.7
20220628073228 26 271 0.0 0.0 0.00 0.00 0.00 30 1022.7
20220628072727 26 332 0.0 0.0 0.00 0.00 0.00 30 1022.7
20220628072227 26 314 0.0 0.0 0.00 0.00 0.00 30 1023.1
20220628071726 26 317 0.0 0.0 0.00 0.00 0.00 30 1022.7
20220628071225 26 133 0.0 0.0 0.00 0.00 0.00 30 1022.7
20220628070724 26 338 0.0 0.0 0.00 0.00 0.00 29 1022.7
20220628070223 26 193 0.0 0.0 0.00 0.00 0.00 29 1022.7
20220628065722 26 31 0.0 0.0 0.00 0.00 0.00 30 1022.7
20220628065221 26 37 0.0 0.0 0.00 0.00 0.00 30 1022.7
20220628064720 26 205 0.0 0.0 0.00 0.00 0.00 31 1023.1
20220628064220 26 151 0.0 0.0 0.00 0.00 0.00 31 1022.7
20220628063719 26 258 0.0 0.0 0.00 0.00 0.00 31 1022.7
20220628063218 26 250 0.0 0.0 0.00 0.00 0.00 31 1023.1
20220628062717 27 323 0.0 0.0 0.00 0.00 0.00 31 1023.1
20220628062216 27 292 0.0 0.0 0.00 0.00 0.00 31 1023.1
20220628061717 27 359 0.0 0.0 0.00 0.00 0.00 30 1022.7
20220628061216 27 91 0.0 0.0 0.00 0.00 0.00 30 1022.7
20220628060716 27 162 0.0 0.0 0.00 0.00 0.00 30 1022.7
20220628060217 27 163 0.0 0.0 0.00 0.00 0.00 30 1022.7
20220628055716 27 163 0.0 0.0 0.00 0.00 0.00 30 1022.7
20220628055215 27 163 0.0 0.0 0.00 0.00 0.00 29 1023.1
20220628054716 27 162 0.0 0.0 0.00 0.00 0.00 29 1023.1
20220628054215 27 285 0.0 0.0 0.00 0.00 0.00 29 1023.1
20220628053713 27 14 0.0 0.0 0.00 0.00 0.00 29 1023.1
20220628053212 27 174 0.0 0.0 0.00 0.00 0.00 29 1023.1
20220628052711 27 174 0.0 0.0 0.00 0.00 0.00 29 1023.1
20220628052210 27 172 0.0 0.0 0.00 0.00 0.00 29 1023.1
20220628051708 27 277 0.0 0.0 0.00 0.00 0.00 29 1023.4
20220628051207 27 177 0.0 0.0 0.00 0.00 0.00 29 1023.1
20220628050706 27 180 0.0 0.0 0.00 0.00 0.00 29 1023.1
20220628050205 27 181 0.0 0.0 0.00 0.00 0.00 29 1023.1
20220628045704 28 180 0.0 0.0 0.00 0.00 0.00 29 1023.1
20220628045205 28 29 0.0 0.0 0.00 0.00 0.00 29 1023.1
20220628044704 28 37 0.0 0.0 0.00 0.00 0.00 30 1023.1
20220628044202 28 40 0.0 0.0 0.00 0.00 0.00 30 1023.1
20220628043703 28 174 0.0 0.0 0.00 0.00 0.00 29 1022.7
20220628043201 28 11 0.0 0.0 0.00 0.00 0.00 29 1023.1